Regional Weather Roundup
Issued by NWS New Orleans/Baton Rouge, LA

Home | Current Version | Previous Version | Text Only | Print | Product List | Glossary On
Versions: 1 2 3 4 5 6 7 8 9 10 11 12 13 14 15 16 17 18 19 20 21 22 23 24 25 26 27 28 29 30 31 32 33 34 35 36 37 38 39 40 41 42 43 44 45 46 47 48 49 50
632
ASUS44 KLIX 280101
RWRLIX
NEW ORLEANS REGIONAL WEATHER ROUNDUP
NATIONAL WEATHER SERVICE NEW ORLEANS LA
700 PM CST FRI FEB 27 2015

NOTE: "FAIR" INDICATES FEW OR NO CLOUDS BELOW 12,000 FEET WITH NO
      SIGNIFICANT WEATHER AND/OR OBSTRUCTIONS TO VISIBILITY.
      SKY/WX - SKY CONDITION AND SIGNIFICANT WEATHER.
      TMP - AIR TEMPERATURE.     DP    - DEWPOINT TEMPERATURE.
      RH  - RELATIVE HUMIDITY.   PRES  - PRESSURE.
      HI  - HEAT INDEX.          WCI   - WIND CHILL INDEX.

*  THESE STATIONS ARE NOT NWS OR FAA STATIONS AND ARE NOT UNDER
   NWS QUALITY CONTROL.

LAZ038-040-048-061>063-065>067-069-280200-
SOUTHEAST LOUISIANA

CITY           SKY/WX    TMP DP  RH WIND       PRES   REMARKS
N.O. AUDUBON     N/A     50  38  63 MISG        N/A
N.O. INTL ARPT PTCLDY    48  33  56 N15       30.34R
N.O. LAKEFRONT CLEAR     50  35  56 N18       30.34R
SLIDELL        CLEAR     44  32  62 N7        30.34R
BATON ROUGE    PTCLDY    47  31  53 NE7       30.34R
BOOTHVILLE     MOCLDY    50  40  68 NE7       30.32R
BELLE CHASSE   PTCLDY    46  33  60 NE3       30.33R
BOGALUSA*        N/A     41  34  77 N5        30.38S
GALLIANO*      PTCLDY    49  36  59 MISG      30.33R
NEW ROADS*       N/A     43  31  61 N10       30.36R
GONZALES*      NOT AVBL
HAMMOND*       NOT AVBL
HOUMA*         CLEAR     45  34  65 N6        30.33R
PORT FOURCHON* NOT AVBL

$$

MSZ070-080>082-280200-
SOUTHERN MISSISSIPPI

CITY           SKY/WX    TMP DP  RH WIND       PRES   REMARKS
MCCOMB         PTCLDY    44  28  53 NE7       30.36S
GULFPORT       CLEAR     48  32  53 N9        30.34R
BILOXI         CLEAR     49  33  54 NE9       30.33R
PASCAGOULA     CLEAR     44  33  65 N7        30.34R
STENNIS ARPT*  CLEAR     45  30  57 N8        30.35R

$$

COASTAL OBSERVATIONS
LAKE AND NEARSHORE STATIONS

STATION/POSITION TIME  TEMP    WIND        PRES    WAVE
                       AIR SEA DIR/SP/G            HT/PER
                 (UTC) (F)     (DEG/KT/KT) (MB)    (FT/S)
PASCAGOULA       0000   51      10/  8/ 10 1026.5
WAVELAND YACHT   0000   49 50   10/ 12/ 13 1026.7
GRAND ISLE       0021   49 53   70/ 12/ 16 1026.7
SOUTHWEST PASS   0000   52 48   30/ 14/ 16 1026.0
NEW CANAL        0021   50      20/ 13/ 16 1026.8
SHELL BEACH      0000   51 51   40/ 11/ 12 1026.7

OFFSHORE STATIONS

STATION/POSITION TIME  TEMP    WIND        PRES    WAVE
                       AIR SEA DIR/SP/G            HT/PER
                 (UTC) (F)     (DEG/KT/KT) (MB)    (FT/S)

$$




USA.gov is the U.S. government's official web portal to all federal, state and local government web resources and services.